This is the latest recevied weather packets stored in our database for station/object WD8INF-9. If no packets are shown the sender has not sent any weather packets the latest 10 day(s).
| Time | Temp. | Humidity | Pressure | Rain* | Wind** | Luminosity | Snow |
|---|---|---|---|---|---|---|---|
| 1778114193 | 11.11° C | - | 1012.2 hPa | 0 mm | - | - | - |
| 1778113893 | 11.67° C | - | 1012.2 hPa | 0 mm | - | - | - |
| 1778113593 | 11.67° C | - | 1011.9 hPa | 0 mm | - | - | - |
| 1778113293 | 11.67° C | - | 1012.1 hPa | 0 mm | - | - | - |
| 1778112992 | 12.22° C | - | 1012 hPa | 0 mm | - | - | - |
| 1778112692 | 12.22° C | - | 1012.1 hPa | 0 mm | - | - | - |
| 1778112392 | 12.22° C | - | 1011.9 hPa | 0 mm | - | - | - |
| 1778112091 | 12.78° C | - | 1011.9 hPa | 0 mm | - | - | - |
| 1778111791 | 12.78° C | - | 1011.7 hPa | 0 mm | - | - | - |
| 1778111490 | 12.78° C | - | 1011.9 hPa | 0 mm | - | - | - |
| 1778111190 | 12.78° C | - | 1011.7 hPa | 0 mm | - | - | - |
| 1778110888 | 13.33° C | - | 1011.8 hPa | 0 mm | - | - | - |
| 1778110588 | 13.33° C | - | 1011.7 hPa | 0 mm | - | - | - |
| 1778110287 | 13.33° C | - | 1011.5 hPa | 0 mm | - | - | - |
| 1778109988 | 13.33° C | - | 1011.7 hPa | 0 mm | - | - | - |
| 1778109686 | 13.89° C | - | 1011.6 hPa | 0 mm | - | - | - |
| 1778109384 | 14.44° C | - | 1011.5 hPa | 0 mm | - | - | - |
| 1778109083 | 14.44° C | - | 1011.7 hPa | 0 mm | - | - | - |
| 1778108783 | 13.89° C | - | 1011.9 hPa | 0 mm | - | - | - |
| 1778108483 | 13.89° C | - | 1011.8 hPa | 0 mm | - | - | - |
| 1778108183 | 13.89° C | - | 1011.8 hPa | 0 mm | - | - | - |
| 1778107883 | 13.89° C | - | 1011.6 hPa | 0 mm | - | - | - |
| 1778107582 | 13.89° C | - | 1012.1 hPa | 0 mm | - | - | - |
| 1778107282 | 13.89° C | - | 1011.6 hPa | 0 mm | - | - | - |
| 1778106981 | 13.89° C | - | 1012.2 hPa | 0 mm | - | - | - |
* Rain since midnight (hover to see other rain measurements)
** Current wind speed in m/s (hover to see current wind gust speed)